Simultaneous Nadir Overpasses (SNOs) Predictions

Prediction of SNOs between METOP-A and TERRA Satellite Orbit:

Table of predicted SNOs for the next 14.0 days since TLE Epoch: 4/3/2021
Index Date (METOP-A) Time (METOP-A) Lat,Lon (METOP-A) SZA (METOP-A ) Date (TERRA) Time (TERRA) Lat,Lon (TERRA) SZA (TERRA ) Distance(km) Time Diff (sec)
1 04/03/2021 21:34:38 -81.34, 82.97 101.68 04/03/2021 21:35:27 -81.33, 83.08 101.65 2.29 49
2 04/03/2021 22:25:18 81.33,-109.25 78.35 04/03/2021 22:24:53 81.34,-109.16 78.36 1.98 25
3 04/06/2021 17:08:59 -81.34, 149.50 102.71 04/06/2021 17:09:41 -81.33, 149.48 102.70 0.92 42
4 04/06/2021 17:59:39 81.32, -42.76 77.32 04/06/2021 17:59:07 81.34, -42.78 77.31 1.33 32
5 04/09/2021 12:43:20 -81.33,-143.99 103.73 04/09/2021 12:43:55 -81.33,-144.14 103.73 2.52 35
6 04/09/2021 13:34:00 81.32, 23.71 76.30 04/09/2021 13:33:21 81.33, 23.57 76.27 2.73 39
7 04/12/2021 08:17:40 -81.33, -77.50 104.73 04/12/2021 08:18:07 -81.34, -77.41 104.69 2.30 27
8 04/12/2021 09:08:21 81.33, 89.79 75.26 04/12/2021 09:07:34 81.33, 89.90 75.25 1.79 47
9 04/15/2021 03:52:01 -81.32, -11.02 105.71 04/15/2021 03:52:21 -81.34, -11.09 105.70 2.05 20



Historial Predications of SNOs between METOP-A and TERRA
